GW5624 Weather Reports


time (UTC)temp
C
wind
direction
speed
KPH
gust
KPH
rain 1hr
cm
rain 24hr
cm
rain mn
cm
humidity
%
barometer
mb
20260508083016 -1 62 3.2 3.2 0.00 0.00 0.00 89 1014.7
20260508081520 -1 23 0.0 0.0 0.00 0.00 0.00 89 1014.6
20260508080030 0 278 0.0 1.6 0.00 0.00 0.00 89 1014.7
20260508074528 0 278 0.0 1.6 0.00 0.00 0.00 88 1014.5
20260508073021 0 278 0.0 1.6 0.00 0.00 0.00 88 1014.4
20260508071525 0 278 0.0 1.6 0.00 0.00 0.00 87 1014.4
20260508070022 0 217 0.0 1.6 0.00 0.00 0.00 87 1014.4
20260508064520 0 162 0.0 3.2 0.00 0.00 0.00 88 1014.6
20260508063022 0 135 0.0 0.0 0.00 0.00 0.00 88 1014.5
20260508061523 0 134 0.0 0.0 0.00 0.00 0.00 88 1014.4
20260508060018 0 122 0.0 1.6 0.00 0.00 0.00 86 1014.2
20260508054521 0 122 0.0 0.0 0.00 0.00 0.00 86 1014.1
20260508053026 1 123 0.0 1.6 0.00 0.00 0.00 84 1014.0
20260508051525 1 131 0.0 1.6 0.00 0.00 0.00 84 1014.0
20260508050028 1 62 0.0 3.2 0.00 0.00 0.00 83 1014.3
20260508044524 2 25 0.0 3.2 0.00 0.00 0.00 82 1014.2
20260508043025 2 178 0.0 1.6 0.00 0.00 0.00 81 1014.1
20260508041523 2 56 0.0 1.6 0.00 0.00 0.00 80 1014.0
20260508040024 3 135 0.0 3.2 0.00 0.00 0.00 75 1013.9
20260508034526 5 237 0.0 3.2 0.00 0.00 0.00 71 1013.7
20260508033022 5 335 1.6 6.4 0.00 0.00 0.00 70 1013.6
20260508031525 4 37 0.0 4.8 0.00 0.00 0.00 75 1013.4
20260508030008 5 358 1.6 9.7 0.00 0.00 0.00 76 1013.3
20260508024512 4 289 0.0 3.2 0.00 0.00 0.00 79 1013.4
20260508023017 5 21 0.0 3.2 0.00 0.00 0.00 76 1013.1
20260508021529 5 15 0.0 8.0 0.00 0.00 0.00 74 1013.0
20260508020024 6 96 0.0 6.4 0.00 0.00 0.00 74 1012.9
20260508014508 6 155 0.0 4.8 0.00 0.00 0.00 73 1012.7
20260508013022 6 210 0.0 1.6 0.00 0.00 0.00 72 1012.5
20260508011519 7 311 0.0 1.6 0.00 0.00 0.00 68 1012.2
20260508010022 8 2 0.0 11.3 0.00 0.00 0.00 63 1012.3
20260508004535 8 310 0.0 4.8 0.00 0.00 0.00 64 1012.1
20260508003007 9 284 3.2 8.0 0.00 0.00 0.00 58 1011.8
20260508001516 10 296 0.0 3.2 0.00 0.03 0.00 62 1011.7
20260508000017 11 358 3.2 8.0 0.00 0.10 0.00 55 1011.6
20260507234504 11 12 0.0 4.8 0.00 0.10 0.00 54 1011.4
20260507233006 12 343 4.8 14.5 0.00 0.10 0.00 52 1011.5
20260507231509 12 291 3.2 16.1 0.00 0.10 0.00 52 1011.2
20260507230013 12 327 3.2 20.9 0.00 0.10 0.00 51 1011.1
20260507224502 12 297 4.8 14.5 0.00 0.10 0.00 52 1011.0
20260507223002 13 335 8.0 14.5 0.00 0.10 0.00 49 1010.8
20260507221513 13 257 6.4 22.5 0.00 0.10 0.00 48 1010.7
20260507220013 14 312 9.7 20.9 0.00 0.10 0.00 49 1010.8
20260507214516 13 306 6.4 22.5 0.00 0.10 0.00 52 1010.3
20260507213003 13 333 11.3 19.3 0.00 0.10 0.00 51 1010.1
20260507211504 14 349 11.3 22.5 0.00 0.10 0.00 51 1010.0
20260507210021 13 278 9.7 19.3 0.00 0.10 0.00 51 1009.8
20260507204513 15 30 6.4 24.1 0.00 0.10 0.00 51 1009.7
20260507203018 15 298 4.8 20.9 0.00 0.10 0.00 55 1009.6
20260507201508 14 332 11.3 27.4 0.00 0.10 0.00 50 1009.8
20260507200003 14 28 9.7 22.5 0.00 0.10 0.00 51 1010.1
20260507194508 13 330 6.4 17.7 0.00 0.10 0.00 52 1010.2
20260507193015 14 295 3.2 17.7 0.00 0.10 0.00 55 1010.1
20260507191518 13 276 8.0 20.9 0.00 0.13 0.00 52 1010.6
20260507190004 13 30 9.7 25.7 0.00 0.15 0.00 54 1010.7
20260507184515 13 36 9.7 19.3 0.00 0.15 0.00 56 1010.9
20260507183011 13 241 3.2 17.7 0.00 0.15 0.00 59 1010.7
20260507181515 13 350 4.8 12.9 0.00 0.15 0.00 60 1010.5
20260507180017 13 326 4.8 11.3 0.00 0.15 0.00 61 1010.5
20260507174502 13 274 4.8 17.7 0.00 0.15 0.00 60 1010.7
20260507173006 13 58 1.6 12.9 0.00 0.15 0.00 60 1010.7
20260507171514 13 319 6.4 20.9 0.00 0.15 0.00 57 1010.8
20260507170016 13 326 4.8 14.5 0.00 0.15 0.00 58 1010.9
20260507164520 13 150 1.6 11.3 0.00 0.15 0.00 57 1010.9
20260507163006 13 214 1.6 8.0 0.00 0.15 0.00 58 1011.1
20260507161507 13 289 4.8 9.7 0.00 0.15 0.00 56 1011.3
20260507160016 13 25 1.6 8.0 0.00 0.15 0.00 57 1011.5
20260507154529 12 11 3.2 12.9 0.00 0.15 0.00 58 1011.5
20260507153035 12 288 4.8 14.5 0.00 0.15 0.00 58 1011.6
20260507151505 11 81 1.6 6.4 0.00 0.15 0.00 62 1011.6
20260507150011 11 88 1.6 9.7 0.00 0.15 0.00 62 1011.7
20260507144516 11 317 4.8 11.3 0.00 0.15 0.00 62 1011.8
20260507143025 11 321 3.2 8.0 0.00 0.15 0.00 62 1012.0
20260507141523 11 359 3.2 8.0 0.00 0.15 0.00 65 1011.9
20260507140009 10 11 4.8 9.7 0.00 0.15 0.00 64 1012.3
20260507134510 10 318 6.4 11.3 0.00 0.15 0.00 65 1012.4
20260507133019 9 17 4.8 9.7 0.00 0.18 0.00 68 1012.4
20260507131528 8 334 3.2 16.1 0.00 0.20 0.00 69 1012.5
20260507130036 8 353 8.0 19.3 0.00 0.20 0.00 68 1012.8
20260507124511 9 20 0.0 6.4 0.00 0.20 0.00 71 1012.7
20260507123011 9 21 1.6 4.8 0.00 0.33 0.00 73 1012.5
20260507121516 8 24 0.0 8.0 0.00 0.38 0.00 75 1012.4
20260507120023 8 175 1.6 8.0 0.00 0.41 0.00 75 1012.3
20260507114523 8 142 0.0 9.7 0.00 0.51 0.00 76 1012.2
20260507113011 8 127 1.6 9.7 0.00 0.51 0.00 78 1012.1
20260507111516 8 300 4.8 14.5 0.00 0.56 0.00 78 1011.7
20260507110023 9 65 3.2 11.3 0.00 0.61 0.00 79 1011.6
20260507104527 9 298 8.0 16.1 0.00 0.64 0.00 78 1011.6
20260507103030 9 309 4.8 9.7 0.00 0.71 0.00 80 1011.3
20260507101528 9 290 6.4 12.9 0.00 0.76 0.00 81 1011.3
20260507100026 10 267 4.8 12.9 0.00 0.79 0.00 82 1011.1
20260507094521 10 284 6.4 9.7 0.00 0.79 0.00 82 1011.1
20260507093026 10 290 3.2 6.4 0.00 0.79 0.00 82 1011.6
20260507091529 10 303 0.0 4.8 0.00 0.79 0.00 82 1011.2
20260507090028 10 282 1.6 3.2 0.00 0.81 0.00 81 1011.3
20260507084519 10 76 1.6 6.4 0.00 0.94 0.00 81 1011.4